QPF
0.00 0.00 0.00 0.00 0.00 0.00 0.01 0.01 0.01 0.03 0.04 0.01 0.00 0.00 0.01 0.00 0.01 0.02 0.01 0.00 0.00 0.00 0.00 0.00 0.00 0.00 0.00 0.00 0.01 0.01 0.01 0.00 0.02 0.01 0.01 0.02 0.04 0.05 0.06 0.04 0.05 0.05 0.03
0.00 0.00 0.00 0.00 0.00 0.00 0.00 0.00 0.00 0.01 0.00 0.02 0.00 0.00 0.01 0.01 0.02 0.00 0.01 0.00 0.00 0.00 0.00 0.00 0.00 0.00 0.00 0.00 0.00 0.00 0.00 0.01 0.02 0.02 0.02 0.02 0.04 0.06 0.05 0.04 0.08 0.13 0.06
0.00 0.00 0.00 0.00 0.00 0.00 0.00 0.00 0.01 0.03 0.01 0.01 0.00 0.02 0.00 0.01 0.04 0.00 0.00 0.00 0.00 0.00 0.00 0.00 0.00 0.00 0.00 0.00 0.00 0.00 0.00 0.00 0.00 0.01 0.01 0.01 0.02 0.03 0.02 0.03 0.04 0.07 0.08
0.00 0.00 0.00 0.00 0.00 0.00 0.00 0.00 0.02 0.11 0.02 0.01 0.00 0.01 0.02 0.03 0.01 0.00 0.00 0.00 0.00 0.00 0.00 0.00 0.00 0.00 0.00 0.00 0.00 0.00 0.00 0.00 0.00 0.00 0.00 0.00 0.00 0.00 0.01 0.02 0.04 0.08 0.08
0.00 0.00 0.00 0.00 0.00 0.00 0.00 0.00 0.04 0.12 0.03 0.00 0.01 0.01 0.02 0.03 0.02 0.01 0.00 0.01 0.00 0.00 0.00 0.00 0.00 0.00 0.00 0.00 0.00 0.00 0.00 0.00 0.00 0.00 0.00 0.00 0.00 0.00 0.01 0.01 0.02 0.06 0.07
0.00 0.00 0.00 0.00 0.00 0.00 0.04 0.04 0.10 0.08 0.04 0.00 0.04 0.09 0.10 0.08 0.09 0.03 0.00 0.00 0.00 0.00 0.00 0.00 0.00 0.00 0.00 0.00 0.00 0.00 0.00 0.00 0.00 0.00 0.00 0.00 0.00 0.00 0.00 0.00 0.00 0.02 0.04
0.01 0.04 0.00 0.03 0.02 0.02 0.12 0.05 0.03 0.03 0.00 0.00 0.08 0.19 0.10 0.22 0.18 0.07 0.02 0.02 0.00 0.00 0.00 0.00 0.00 0.00 0.00 0.00 0.00 0.00 0.00 0.00 0.00 0.00 0.00 0.00 0.00 0.00 0.00 0.00 0.00 0.00 0.02
0.00 0.01 0.01 0.04 0.05 0.07 0.05 0.04 0.04 0.01 0.00 0.00 0.04 0.27 0.19 0.10 0.16 0.21 0.09 0.13 0.02 0.00 0.00 0.00 0.00 0.01 0.00 0.03 0.00 0.00 0.00 0.00 0.00 0.00 0.00 0.00 0.00 0.00 0.00 0.00 0.00 0.00 0.00
0.00 0.00 0.00 0.00 0.03 0.04 0.08 0.19 0.05 0.01 0.02 0.02 0.01 0.06 0.22 0.13 0.05 0.09 0.19 0.10 0.01 0.00 0.00 0.00 0.00 0.00 0.00 0.01 0.00 0.00 0.00 0.00 0.00 0.00 0.00 0.00 0.00 0.00 0.00 0.00 0.00 0.00 0.00
0.00 0.00 0.00 0.00 0.00 0.00 0.01 0.09 0.01 0.00 0.01 0.01 0.01 0.03 0.04 0.05 0.10 0.14 0.08 0.06 0.03 0.00 0.00 0.00 0.00 0.00 0.00 0.00 0.00 0.00 0.00 0.00 0.00 0.00 0.00 0.00 0.00 0.00 0.00 0.00 0.00 0.00 0.00
0.00 0.00 0.00 0.00 0.02 0.01 0.03 0.04 0.05 0.03 0.01 0.00 0.00 0.01 0.05 0.04 0.06 0.03 0.05 0.14 0.06 0.00 0.00 0.00 0.00 0.00 0.00 0.00 0.00 0.00 0.00 0.00 0.00 0.00 0.00 0.00 0.00 0.00 0.00 0.00 0.00 0.00 0.00
0.00 0.00 0.00 0.00 0.01 0.03 0.15 0.20 0.12 0.07 0.05 0.02 0.01 0.01 0.00 0.00 0.01 0.01 0.02 0.01 0.01 0.00 0.00 0.00 0.00 0.00 0.00 0.00 0.00 0.00 0.00 0.00 0.00 0.00 0.00 0.00 0.00 0.00 0.00 0.00 0.00 0.00 0.00
0.00 0.00 0.00 0.00 0.00 0.05 0.14 0.18 0.10 0.07 0.09 0.08 0.03 0.01 0.00 0.01 0.00 0.00 0.00 0.00 0.00 0.00 0.00 0.00 0.00 0.00 0.00 0.00 0.00 0.00 0.00 0.00 0.00 0.00 0.00 0.00 0.00 0.00 0.00 0.00 0.00 0.00 0.00
0.00 0.00 0.00 0.00 0.00 0.06 0.13 0.17 0.09 0.06 0.05 0.08 0.04 0.02 0.02 0.00 0.02 0.14 0.05 0.02 0.03 0.00 0.06 0.06 0.06 0.05 0.04 0.01 0.00 0.00 0.00 0.00 0.00 0.00 0.00 0.00 0.00 0.00 0.00 0.00 0.00 0.00 0.00
0.00 0.02 0.18 0.10 0.02 0.00 0.01 0.06 0.07 0.06 0.06 0.05 0.03 0.05 0.04 0.02 0.08 0.23 0.11 0.12 0.19 0.09 0.03 0.14 0.13 0.08 0.05 0.05 0.01 0.00 0.00 0.00 0.00 0.00 0.00 0.00 0.00 0.00 0.00 0.00 0.00 0.00 0.00
0.00 0.05 0.16 0.12 0.02 0.01 0.02 0.12 0.02 0.02 0.12 0.06 0.06 0.13 0.06 0.09 0.15 0.26 0.19 0.10 0.03 0.05 0.05 0.00 0.06 0.14 0.18 0.10 0.08 0.04 0.00 0.00 0.00 0.00 0.00 0.00 0.00 0.00 0.00 0.00 0.00 0.00 0.00
0.00 0.01 0.02 0.04 0.05 0.04 0.02 0.06 0.03 0.08 0.11 0.08 0.17 0.27 0.32 0.22 0.25 0.21 0.10 0.02 0.01 0.01 0.01 0.02 0.04 0.02 0.11 0.09 0.14 0.04 0.01 0.00 0.00 0.00 0.00 0.00 0.00 0.00 0.00 0.00 0.00 0.00 0.00
0.00 0.00 0.01 0.03 0.03 0.03 0.04 0.05 0.06 0.04 0.02 0.11 0.10 0.18 0.24 0.22 0.22 0.06 0.00 0.00 0.00 0.00 0.00 0.00 0.00 0.00 0.01 0.03 0.05 0.07 0.03 0.00 0.00 0.00 0.00 0.00 0.00 0.00 0.00 0.00 0.00 0.00 0.00
0.03 0.03 0.05 0.14 0.16 0.13 0.12 0.11 0.06 0.06 0.06 0.05 0.03 0.03 0.01 0.01 0.01 0.00 0.00 0.00 0.00 0.00 0.00 0.00 0.00 0.01 0.02 0.04 0.06 0.06 0.09 0.04 0.00 0.00 0.00 0.00 0.00 0.00 0.00 0.00 0.00 0.00 0.00
0.27 0.27 0.23 0.23 0.16 0.19 0.21 0.08 0.01 0.00 0.00 0.00 0.00 0.00 0.00 0.00 0.00 0.00 0.00 0.00 0.00 0.00 0.00 0.00 0.00 0.00 0.00 0.00 0.03 0.04 0.03 0.01 0.00 0.00 0.00 0.00 0.00 0.00 0.00 0.00 0.00 0.00 0.00
0.16 0.11 0.08 0.06 0.08 0.10 0.14 0.10 0.10 0.04 0.01 0.01 0.00 0.00 0.00 0.00 0.00 0.00 0.00 0.00 0.00 0.00 0.00 0.00 0.00 0.00 0.00 0.00 0.00 0.00 0.01 0.00 0.00 0.00 0.00 0.00 0.00 0.00 0.00 0.00 0.00 0.00 0.00
0.32 0.20 0.19 0.09 0.07 0.12 0.15 0.08 0.04 0.02 0.01 0.00 0.00 0.00 0.00 0.00 0.00 0.00 0.00 0.00 0.00 0.00 0.00 0.00 0.00 0.00 0.00 0.00 0.00 0.00 0.00 0.00 0.00 0.00 0.00 0.00 0.00 0.00 0.00 0.00 0.00 0.00 0.00
0.03 0.03 0.02 0.01 0.01 0.04 0.03 0.01 0.00 0.00 0.00 0.00 0.00 0.00 0.00 0.00 0.00 0.00 0.00 0.00 0.00 0.00 0.00 0.00 0.00 0.00 0.00 0.00 0.00 0.00 0.00 0.00 0.00 0.00 0.00 0.00 0.00 0.00 0.00 0.00 0.00 0.00 0.00
0.00 0.00 0.00 0.00 0.00 0.00 0.00 0.00 0.00 0.00 0.00 0.00 0.00 0.00 0.00 0.00 0.00 0.00 0.00 0.00 0.00 0.00 0.00 0.00 0.00 0.00 0.00 0.00 0.01 0.01 0.01 0.00 0.00 0.00 0.00 0.00 0.00 0.00 0.00 0.00 0.00 0.00 0.00
0.00 0.00 0.00 0.00 0.00 0.00 0.00 0.00 0.00 0.00 0.00 0.00 0.00 0.00 0.00 0.00 0.00 0.00 0.00 0.00 0.00 0.00 0.00 0.00 0.00 0.00 0.00 0.00 0.00 0.00 0.00 0.00 0.00 0.00 0.00 0.00 0.00 0.00 0.00 0.00 0.00 0.00 0.00
0.00 0.00 0.00 0.00 0.00 0.00 0.00 0.00 0.00 0.00 0.00 0.00 0.00 0.00 0.00 0.00 0.00 0.00 0.00 0.00 0.00 0.00 0.00 0.00 0.00 0.00 0.00 0.00 0.00 0.00 0.00 0.00 0.00 0.00 0.00 0.00 0.00 0.00 0.00 0.00 0.02 0.01 0.00
MSLP
1014.35 1013.97 1014.30 1014.05 1014.07 1013.81 1013.55 1014.12 1014.22 1014.46 1014.63 1014.61 1014.69 1014.09 1014.02 1013.63 1014.44 1014.83 1014.72 1014.59 1015.14 1015.77 1016.13 1016.39 1016.63 1016.83 1017.09 1017.25 1017.45 1017.68 1017.88 1018.21 1018.53 1018.71 1018.88 1019.10 1019.31 1019.58 1019.91 1020.16 1020.32 1020.53 1020.90
1013.71 1013.86 1013.96 1013.85 1013.86 1013.83 1013.83 1013.54 1013.62 1014.17 1013.87 1013.68 1014.03 1013.53 1013.65 1013.82 1013.93 1013.94 1015.11 1014.73 1015.13 1015.72 1015.79 1016.04 1016.35 1016.63 1016.91 1017.11 1017.18 1017.46 1017.65 1017.84 1018.11 1018.39 1018.57 1018.81 1019.10 1019.33 1019.51 1019.72 1019.88 1020.11 1020.49
1013.49 1013.50 1013.57 1013.56 1013.60 1013.93 1013.89 1013.78 1013.90 1014.22 1014.51 1014.13 1013.33 1013.23 1013.64 1014.34 1013.67 1013.79 1014.44 1014.81 1015.63 1015.92 1015.77 1015.79 1015.99 1016.25 1016.61 1017.01 1017.11 1017.24 1017.40 1017.53 1017.72 1017.96 1018.25 1018.51 1018.71 1019.01 1019.18 1019.37 1019.57 1019.79 1020.11
1013.27 1013.31 1013.20 1013.12 1013.15 1013.42 1013.20 1014.00 1014.45 1014.79 1014.00 1013.93 1013.74 1013.52 1013.38 1013.36 1013.49 1013.22 1013.69 1014.53 1015.11 1015.67 1016.07 1016.10 1016.00 1016.13 1016.45 1016.78 1017.01 1017.23 1017.54 1017.62 1017.65 1017.77 1017.94 1018.15 1018.46 1018.66 1018.81 1019.00 1019.20 1019.51 1019.81
1013.12 1013.30 1013.06 1013.07 1012.94 1012.86 1012.78 1013.60 1013.73 1014.57 1014.76 1014.13 1013.97 1014.08 1014.39 1014.82 1013.48 1013.02 1012.88 1013.82 1014.19 1015.13 1015.62 1015.92 1015.84 1015.91 1016.18 1016.44 1016.82 1017.13 1017.35 1017.54 1017.65 1017.82 1017.92 1018.09 1018.29 1018.52 1018.65 1018.74 1018.86 1019.08 1019.44
1012.75 1013.26 1012.71 1012.99 1013.29 1013.18 1013.41 1013.72 1013.59 1013.95 1014.12 1013.66 1014.78 1015.04 1016.45 1016.65 1015.34 1012.69 1011.98 1012.26 1013.19 1014.13 1014.81 1015.42 1015.65 1015.48 1015.71 1016.08 1016.40 1016.73 1017.05 1017.38 1017.53 1017.66 1017.84 1018.02 1018.14 1018.34 1018.40 1018.46 1018.45 1018.50 1018.83
1012.28 1012.79 1013.29 1013.90 1013.66 1013.95 1014.74 1014.00 1013.49 1014.42 1013.59 1013.45 1014.65 1016.52 1016.74 1015.97 1016.29 1015.20 1013.28 1013.22 1012.36 1012.71 1013.88 1014.42 1014.72 1014.66 1015.33 1015.66 1015.87 1016.09 1016.42 1016.82 1017.23 1017.50 1017.72 1017.95 1018.13 1018.27 1018.24 1018.27 1018.30 1018.34 1018.39
1012.16 1012.58 1013.00 1013.84 1013.31 1014.82 1013.75 1014.26 1014.31 1013.56 1013.75 1013.78 1013.98 1016.17 1017.68 1016.54 1016.90 1016.05 1014.53 1012.40 1012.83 1011.58 1012.86 1013.55 1013.97 1014.20 1014.53 1015.18 1015.50 1015.60 1015.87 1016.32 1016.61 1017.01 1017.33 1017.68 1017.88 1018.05 1018.13 1018.17 1018.16 1018.11 1018.06
1011.60 1011.94 1012.08 1012.51 1013.12 1013.97 1013.28 1013.87 1013.88 1013.24 1013.85 1014.00 1013.93 1014.17 1016.27 1017.03 1017.28 1017.41 1017.89 1015.03 1011.39 1011.35 1012.54 1012.74 1013.36 1013.49 1013.77 1014.41 1014.75 1015.14 1015.36 1015.87 1016.34 1016.51 1016.86 1017.24 1017.58 1017.78 1017.86 1017.84 1017.82 1017.77 1017.79
1011.08 1011.27 1011.29 1011.38 1011.75 1012.03 1012.96 1014.20 1013.81 1012.57 1013.25 1014.04 1013.84 1013.32 1013.97 1014.78 1015.97 1016.09 1015.45 1013.41 1012.80 1011.92 1012.32 1012.74 1012.94 1012.76 1013.02 1013.69 1014.21 1014.43 1014.56 1015.12 1015.72 1016.03 1016.51 1017.01 1017.27 1017.45 1017.62 1017.75 1017.77 1017.70 1017.65
1010.78 1010.96 1010.92 1011.09 1011.61 1012.12 1013.22 1013.25 1012.40 1012.93 1012.69 1012.76 1013.07 1013.30 1013.67 1013.70 1014.09 1013.89 1015.01 1014.23 1013.40 1012.68 1012.28 1012.37 1012.57 1012.42 1012.68 1013.08 1013.55 1013.90 1014.32 1014.79 1015.28 1015.70 1016.08 1016.38 1016.69 1016.90 1017.22 1017.33 1017.43 1017.52 1017.49
1010.54 1010.31 1010.60 1011.22 1012.16 1012.59 1013.37 1012.77 1012.82 1012.62 1012.41 1012.15 1012.43 1012.85 1012.62 1012.25 1012.37 1012.61 1012.79 1012.75 1012.53 1011.76 1011.85 1012.04 1012.07 1012.27 1012.66 1012.97 1013.26 1013.43 1013.85 1014.27 1014.74 1015.20 1015.57 1015.76 1016.20 1016.64 1016.88 1017.13 1017.25 1017.36 1017.40
1009.95 1010.29 1010.50 1010.97 1011.55 1012.07 1012.95 1012.85 1012.88 1013.06 1011.95 1011.89 1012.13 1012.19 1011.89 1011.49 1010.98 1011.26 1011.66 1012.08 1011.94 1011.26 1010.72 1010.20 1010.74 1011.41 1012.44 1013.01 1013.19 1013.57 1013.96 1014.38 1014.52 1014.71 1015.32 1015.78 1016.06 1016.24 1016.44 1016.71 1016.89 1017.05 1017.15
1009.73 1009.26 1009.61 1010.41 1010.95 1011.49 1012.35 1012.98 1012.00 1012.16 1011.74 1011.14 1011.48 1011.67 1011.47 1010.98 1010.52 1012.37 1012.75 1011.81 1012.36 1012.01 1011.69 1011.84 1010.94 1013.49 1013.71 1012.56 1012.96 1013.60 1014.02 1014.42 1014.48 1014.75 1015.15 1015.68 1015.61 1015.92 1015.96 1016.32 1016.57 1016.81 1016.84
1009.57 1009.10 1009.96 1010.32 1011.72 1010.70 1011.14 1011.36 1011.45 1011.61 1010.91 1010.73 1011.28 1011.52 1011.42 1011.29 1011.29 1013.01 1013.03 1013.66 1012.48 1012.78 1012.01 1012.42 1013.43 1014.25 1014.58 1014.73 1014.78 1013.45 1013.52 1014.20 1014.20 1014.65 1015.00 1015.41 1015.42 1015.37 1015.72 1015.97 1016.30 1016.48 1016.61
1009.39 1009.71 1010.76 1010.52 1010.23 1010.58 1010.70 1011.16 1010.56 1010.19 1009.97 1010.47 1010.92 1011.53 1011.56 1011.52 1012.05 1013.06 1012.08 1013.47 1012.54 1011.99 1012.12 1012.38 1012.87 1014.48 1014.39 1014.22 1013.90 1014.13 1012.99 1013.33 1013.15 1013.65 1014.34 1014.87 1015.04 1015.07 1015.19 1015.57 1015.79 1015.99 1016.32
1009.00 1009.55 1009.87 1010.09 1010.35 1010.50 1010.74 1010.40 1010.07 1009.64 1009.70 1010.37 1011.03 1011.52 1011.87 1011.85 1012.51 1012.72 1012.17 1012.46 1011.93 1011.23 1011.76 1012.52 1012.57 1013.14 1013.68 1013.73 1013.30 1012.51 1012.32 1012.72 1012.69 1013.31 1013.59 1013.85 1014.13 1014.44 1014.68 1014.97 1015.42 1015.75 1015.81
1008.73 1009.06 1009.53 1010.19 1010.42 1010.28 1010.34 1010.31 1010.12 1009.99 1010.00 1010.48 1011.00 1011.37 1011.92 1011.97 1012.43 1011.59 1011.81 1011.36 1010.72 1010.86 1011.94 1012.37 1012.53 1012.61 1012.56 1012.25 1012.05 1012.08 1012.12 1011.57 1011.63 1012.16 1012.59 1012.95 1013.25 1013.29 1013.38 1013.91 1014.52 1015.06 1015.39
1009.03 1009.22 1009.60 1010.03 1010.45 1010.55 1010.73 1010.93 1010.81 1010.84 1010.97 1010.75 1011.25 1011.34 1011.63 1011.73 1012.35 1012.15 1011.46 1010.80 1011.23 1011.63 1011.92 1011.94 1012.33 1012.41 1011.86 1011.44 1011.63 1011.62 1011.68 1011.60 1011.42 1011.27 1011.74 1011.90 1011.97 1012.09 1012.53 1013.02 1013.56 1014.02 1014.38
1010.04 1010.26 1010.56 1010.78 1010.66 1010.65 1011.25 1011.21 1011.32 1011.56 1011.52 1011.26 1011.21 1011.57 1011.65 1011.99 1012.20 1012.14 1011.81 1011.69 1011.58 1011.73 1011.99 1011.85 1011.65 1011.35 1010.83 1010.41 1010.43 1010.84 1011.15 1011.38 1011.16 1010.67 1010.34 1010.56 1010.76 1011.21 1011.73 1012.19 1012.69 1012.92 1013.34
1010.93 1011.10 1012.04 1011.83 1011.85 1011.35 1012.08 1012.31 1012.33 1012.36 1012.37 1012.10 1011.65 1011.78 1011.76 1011.95 1011.94 1012.01 1012.22 1012.19 1012.19 1012.10 1012.14 1012.35 1012.26 1011.78 1011.44 1011.29 1011.36 1011.36 1011.22 1010.85 1010.46 1010.10 1009.92 1009.79 1010.44 1010.92 1011.31 1011.64 1011.76 1012.12 1012.36
1011.82 1012.05 1011.74 1012.89 1012.27 1012.55 1012.99 1012.98 1013.22 1013.25 1013.01 1012.90 1012.45 1012.12 1011.84 1011.95 1011.57 1011.60 1011.88 1012.34 1012.53 1012.57 1012.57 1012.31 1011.89 1011.75 1011.65 1011.65 1011.35 1011.28 1011.10 1010.80 1010.32 1009.70 1009.94 1009.84 1009.76 1010.27 1010.30 1010.39 1010.34 1010.65 1011.03
1011.73 1011.81 1012.59 1012.65 1012.48 1012.64 1013.24 1013.27 1013.33 1013.47 1013.28 1013.08 1012.87 1012.66 1012.38 1012.13 1011.75 1011.35 1011.71 1012.44 1012.51 1012.44 1012.51 1012.56 1012.59 1012.19 1011.87 1011.73 1011.43 1011.17 1011.00 1010.75 1010.50 1009.96 1010.07 1010.11 1009.88 1009.83 1009.41 1009.21 1009.42 1009.55 1009.89
1011.63 1011.19 1011.67 1011.81 1012.36 1012.99 1013.42 1013.67 1013.83 1013.67 1013.33 1013.06 1013.07 1013.00 1013.08 1012.85 1012.85 1012.13 1012.07 1012.62 1012.69 1012.65 1012.53 1012.43 1012.23 1012.02 1011.68 1011.53 1011.51 1011.10 1010.94 1010.94 1010.45 1010.01 1010.04 1009.94 1009.47 1009.37 1008.73 1008.33 1008.25 1008.41 1008.95
1011.05 1011.26 1011.87 1012.30 1012.61 1013.11 1013.70 1013.81 1013.93 1013.73 1013.46 1013.05 1012.88 1012.89 1013.11 1013.19 1013.46 1012.98 1012.03 1013.26 1012.99 1012.81 1012.38 1012.04 1011.78 1011.65 1011.36 1011.07 1011.00 1011.10 1010.81 1010.66 1009.89 1009.53 1009.21 1009.15 1008.68 1008.48 1008.28 1007.95 1007.64 1007.88 1008.13
1011.52 1011.85 1012.28 1012.61 1012.92 1013.03 1013.64 1014.00 1014.12 1013.84 1013.63 1013.26 1012.92 1013.01 1013.37 1013.73 1013.13 1012.30 1013.39 1013.51 1013.15 1012.67 1012.43 1012.13 1011.99 1011.41 1010.84 1010.36 1010.07 1010.27 1010.12 1010.10 1009.65 1009.06 1008.52 1008.48 1008.25 1008.30 1008.31 1007.92 1007.72 1007.84 1008.27
Thickness
5822 5823 5820 5820 5818 5819 5821 5815 5815 5808 5803 5800 5803 5813 5817 5821 5808 5806 5808 5812 5807 5797 5793 5790 5786 5782 5778 5774 5771 5767 5764 5761 5757 5755 5753 5750 5747 5745 5743 5740 5737 5734 5731
5824 5825 5824 5824 5823 5819 5816 5818 5820 5818 5819 5813 5811 5817 5822 5812 5810 5814 5806 5812 5806 5797 5797 5794 5789 5784 5780 5775 5772 5767 5766 5764 5762 5759 5757 5754 5750 5747 5745 5743 5740 5737 5733
5826 5828 5829 5828 5825 5820 5817 5816 5819 5820 5815 5817 5822 5824 5823 5815 5815 5813 5810 5808 5801 5797 5799 5797 5793 5789 5784 5777 5773 5769 5768 5768 5766 5764 5760 5756 5754 5749 5746 5744 5742 5739 5737
5827 5828 5830 5830 5828 5825 5824 5813 5817 5815 5817 5815 5823 5823 5822 5823 5816 5818 5809 5806 5805 5799 5796 5795 5794 5792 5788 5782 5776 5773 5770 5769 5768 5767 5764 5760 5755 5752 5750 5747 5744 5741 5738
5828 5826 5827 5825 5827 5828 5832 5823 5818 5812 5808 5812 5815 5816 5810 5802 5816 5818 5814 5813 5809 5803 5799 5796 5797 5795 5790 5786 5780 5775 5773 5770 5769 5767 5765 5762 5758 5754 5751 5748 5746 5743 5739
5830 5824 5827 5822 5816 5821 5824 5825 5824 5821 5818 5813 5801 5803 5789 5784 5793 5781 5818 5818 5814 5806 5803 5798 5796 5796 5792 5790 5786 5781 5777 5772 5770 5768 5766 5763 5761 5757 5755 5753 5751 5750 5746
5831 5827 5821 5812 5815 5817 5807 5818 5819 5809 5816 5813 5799 5781 5782 5794 5785 5794 5814 5803 5812 5812 5805 5804 5800 5799 5795 5792 5791 5787 5783 5778 5774 5771 5767 5764 5761 5759 5758 5757 5754 5752 5750
5830 5825 5822 5808 5818 5805 5806 5804 5809 5812 5808 5810 5798 5780 5764 5778 5775 5783 5791 5764 5802 5818 5810 5807 5804 5803 5800 5796 5793 5792 5788 5783 5780 5775 5771 5766 5764 5761 5759 5758 5756 5754 5753
5831 5827 5824 5821 5815 5810 5813 5807 5804 5813 5796 5798 5797 5792 5762 5761 5769 5761 5758 5781 5824 5820 5813 5812 5807 5808 5805 5800 5799 5795 5793 5787 5782 5779 5775 5770 5766 5763 5762 5761 5760 5759 5756
5833 5830 5827 5830 5828 5828 5817 5806 5809 5817 5806 5791 5799 5805 5795 5789 5772 5767 5786 5803 5809 5816 5817 5816 5810 5812 5809 5804 5799 5798 5796 5792 5786 5781 5776 5771 5767 5765 5762 5760 5759 5758 5757
5834 5830 5828 5830 5826 5826 5812 5808 5814 5808 5807 5806 5801 5799 5793 5787 5787 5786 5773 5785 5798 5811 5815 5818 5815 5814 5813 5809 5805 5800 5797 5791 5786 5782 5779 5775 5773 5769 5765 5763 5760 5758 5757
5832 5834 5830 5825 5818 5814 5805 5810 5806 5811 5812 5811 5808 5801 5798 5799 5796 5795 5792 5800 5801 5810 5813 5812 5814 5815 5810 5808 5804 5803 5799 5794 5789 5783 5780 5778 5775 5770 5766 5761 5760 5758 5756
5829 5826 5825 5824 5815 5810 5804 5808 5808 5806 5815 5809 5805 5802 5802 5805 5812 5808 5803 5799 5800 5807 5810 5823 5818 5810 5804 5801 5800 5798 5795 5790 5787 5785 5780 5776 5772 5770 5767 5763 5761 5758 5756
5824 5831 5828 5824 5817 5808 5802 5797 5810 5807 5812 5814 5807 5802 5802 5808 5813 5784 5783 5800 5786 5792 5797 5788 5774 5784 5783 5797 5796 5790 5788 5787 5784 5781 5779 5774 5773 5770 5768 5764 5760 5756 5755
5819 5826 5815 5817 5807 5812 5808 5806 5804 5804 5811 5811 5805 5800 5800 5802 5803 5776 5772 5780 5788 5772 5784 5786 5773 5763 5766 5767 5771 5783 5787 5782 5783 5778 5776 5773 5773 5771 5766 5763 5760 5756 5753
5813 5811 5806 5809 5812 5808 5807 5805 5808 5811 5810 5805 5802 5797 5794 5796 5792 5781 5764 5781 5788 5789 5779 5783 5778 5770 5770 5775 5779 5771 5784 5784 5787 5782 5777 5772 5771 5770 5767 5762 5759 5756 5751
5810 5802 5803 5800 5798 5796 5799 5803 5802 5804 5803 5798 5795 5790 5784 5787 5783 5779 5783 5782 5790 5797 5783 5779 5786 5774 5767 5769 5775 5779 5780 5780 5784 5777 5778 5776 5773 5769 5766 5762 5756 5752 5751
5805 5799 5796 5793 5790 5793 5794 5792 5790 5792 5792 5788 5786 5784 5779 5783 5771 5781 5781 5785 5792 5790 5775 5770 5777 5777 5775 5777 5780 5778 5776 5779 5782 5780 5778 5775 5773 5772 5771 5765 5757 5751 5747
5789 5789 5787 5781 5782 5783 5780 5777 5780 5779 5777 5779 5777 5775 5773 5774 5770 5772 5777 5785 5779 5776 5775 5774 5769 5772 5778 5782 5778 5776 5773 5775 5777 5781 5782 5780 5777 5775 5770 5763 5758 5752 5748
5773 5771 5768 5770 5772 5772 5764 5764 5767 5765 5764 5767 5770 5769 5768 5765 5765 5764 5770 5769 5771 5771 5770 5769 5769 5771 5774 5777 5778 5771 5769 5770 5771 5777 5783 5783 5778 5774 5768 5762 5757 5753 5748
5755 5754 5746 5752 5752 5757 5752 5749 5750 5749 5748 5750 5756 5756 5758 5758 5758 5760 5758 5757 5757 5758 5759 5756 5756 5759 5761 5761 5758 5764 5765 5769 5773 5774 5775 5779 5772 5770 5764 5760 5757 5750 5746
5736 5735 5735 5726 5739 5743 5735 5735 5733 5733 5735 5734 5737 5743 5746 5746 5751 5751 5752 5749 5748 5746 5744 5746 5750 5750 5752 5752 5754 5754 5754 5754 5756 5770 5758 5765 5762 5758 5763 5762 5761 5755 5749
5734 5731 5727 5727 5731 5730 5723 5722 5724 5724 5724 5725 5725 5725 5726 5733 5739 5744 5744 5740 5739 5738 5737 5737 5737 5741 5743 5744 5745 5744 5744 5744 5746 5756 5750 5746 5752 5750 5750 5751 5755 5755 5750
5731 5735 5731 5732 5725 5718 5711 5709 5709 5713 5716 5717 5715 5712 5713 5715 5716 5725 5728 5726 5725 5725 5726 5729 5732 5734 5736 5737 5735 5737 5737 5734 5740 5745 5742 5732 5744 5743 5747 5748 5746 5749 5747
5727 5727 5724 5717 5713 5708 5701 5700 5701 5704 5704 5708 5709 5705 5705 5704 5699 5705 5719 5707 5712 5712 5716 5721 5723 5724 5726 5728 5727 5725 5725 5720 5727 5732 5739 5732 5737 5737 5741 5744 5745 5742 5739
5718 5715 5710 5707 5701 5703 5697 5694 5693 5696 5695 5697 5699 5698 5692 5687 5693 5704 5696 5694 5697 5701 5703 5705 5707 5712 5716 5720 5722 5719 5718 5712 5715 5718 5728 5724 5727 5725 5721 5732 5734 5733 5728